Weather Roundup
Issued by NWS Springfield, MO

Home | Current Version | Previous Version | Text Only | Print | Product List | Glossary On
Versions: 1 2 3 4 5 6 7 8 9 10 11 12 13 14 15 16 17 18 19 20 21 22 23 24 25 26 27 28 29 30 31 32 33 34 35 36 37 38 39 40 41 42 43 44 45 46 47 48 49 50
000
NZUS99 KSGF 290407
HRRSGF

HOURLY WEATHER
NATIONAL WEATHER SERVICE SPRINGFIELD MO
1100 PM CDT SAT MAY 28 2016

......SGF CWA......

CITY           SKY/WX    TMP DP  RH WIND       PRES   REMARKS
SPRINGFIELD    CLEAR     65  60  84 SW5       30.04R
JOPLIN         CLEAR     67  63  87 S5        30.03R
WEST PLAINS    CLEAR     72  65  78 S7        30.06R
ROLLA          MOCLDY    65  62  90 SE3       30.02R

......SURROUNDING SGF CWA......

CITY           SKY/WX    TMP DP  RH WIND       PRES   REMARKS
CHANUTE        CLEAR     66  62  87 S5        30.02R
PARSONS        CLEAR     64  62  93 CALM      30.03R
COFFEYVILLE    CLEAR     68  65  90 S5        30.01R
EMPORIA        CLEAR     64  59  83 SW5       30.02R
GROVE OK       CLEAR     68  66  94 CALM      30.04R
ROGERS AR        N/A     67  64  90 CALM      30.06R
SILOAM SPRINGS CLEAR     66  57  72 CALM      30.05S
HARRISON AR    MOCLDY    69  65  86 S5        30.06R
NEAR YELLVILLE CLEAR    N/A N/A N/A SW6       30.01R

......KANSAS AND MISSOURI......

CITY           SKY/WX    TMP DP  RH WIND       PRES   REMARKS
KANSAS CTY INT CLEAR     65  59  81 SW6       30.00R
DOWNTOWN KC    CLEAR     70  59  68 SW5       29.99R
COLUMBIA       CLEAR     70  62  76 W7        30.01R
SEDALIA        CLEAR     70  62  76 SW3       30.02R
ST JOSEPH      CLEAR     67  61  81 SW7       29.98R
ST LOUIS       CLOUDY    77  65  66 SW10      29.98S
SPIRIT OF STL  CLOUDY    72  61  68 W6        29.98R
KIRKSVILLE     CLEAR     64  58  80 SW6       29.99R
WICHITA        CLEAR     67  58  72 CALM      30.02R
TOPEKA         CLEAR     65  60  84 CALM      30.00R
OLATHE         CLEAR     67  58  72 CALM      30.02R

......TENNESSEE......

CITY           SKY/WX    TMP DP  RH WIND       PRES   REMARKS
MEMPHIS        PTCLDY    75  68  78 S7        30.05S
NASHVILLE      MOCLDY    70  62  76 S5        30.09S

......ARKANSAS.......

CITY           SKY/WX    TMP DP  RH WIND       PRES   REMARKS
FAYETTEVILLE   CLEAR     65  65 100 SE3       30.05R
FT SMITH       CLEAR     74  65  73 SE5       30.02R
LITTLE ROCK    CLEAR     72  66  81 CALM      30.04R

......OKLAHOMA.......

CITY           SKY/WX    TMP DP  RH WIND       PRES   REMARKS
TULSA          CLEAR     70  66  87 SE3       30.00R
PONCA CITY     CLEAR     68  63  84 CALM      30.01R
MCALESTER      CLEAR     73  67  81 VRB5      30.05R
OKLAHOMA CITY  CLEAR     70  65  84 SE7       30.03R

......IOWA............

CITY           SKY/WX    TMP DP  RH WIND       PRES   REMARKS
DES MOINES     PTCLDY    66  55  67 SW9       29.89R
QUAD CITIES    PTCLDY    71  59  65 SW8       29.91R

......ILLINOIS........

CITY           SKY/WX    TMP DP  RH WIND       PRES   REMARKS
QUINCY         CLOUDY    69  61  75 SW8       29.96S
CHICAGO        CLOUDY    65  63  93 S7        29.95S




USA.gov is the U.S. government's official web portal to all federal, state and local government web resources and services.